Hourly Data Report for September 14, 2017

All times are specified in Local Standard Time (LST). Add 1 hour to adjust for Daylight Saving Time where and when it is observed.

POND INLET A
NUNAVUT

72°41'22.000" N
77°58'08.000" W
61.60 m
2403206
71095
YIO

Download Data

Hourly Data (September 2017)
Hourly Data Report for September 14, 2017
Temp Definition
°C
Dew Point Temp Definition
°C
Rel Hum Definition
%
Wind Dir Definition
10's deg

Wind Spd Definition
km/h
Visibility Definition
km
Stn Press Definition
kPa
Hmdx Definition


Wind Chill Definition


Weather Definition


TIME
00:00 Legend Double Dagger -5.4 -7.7 84 15 5 16.1 101.07   -8 LegendNANA
01:00 Legend Double Dagger -5.5 -7.3 87   0 16.1 101.07     LegendNANA
02:00 Legend Double Dagger -6.2 -8.2 86 14 8 16.1 101.07   -10 LegendNANA
03:00 Legend Double Dagger -5.8 -7.8 86 15 9 16.1 101.06   -10 LegendNANA
04:00 Legend Double Dagger -6.2 -8.2 86 16 5 16.1 101.06   -9 LegendNANA
05:00 Legend Double Dagger -6.4 -8.1 88 14 5 16.1 101.06   -9 LegendNANA
06:00 Legend Double Dagger -5.5 -6.6 92 9 4 16.1 101.05   -7 LegendNANA
07:00 Legend Double Dagger -3.9 -5.8 87 LegendMM 4 16.1 101.02   -6 LegendNANA
08:00 Legend Double Dagger -2.3 -4.5 85 14 5 16.1 101.01   -4 LegendNANA
09:00 Legend Double Dagger 0.6 -2.1 82   0 16.1 100.98     LegendNANA
10:00 Legend Double Dagger 2.8 -1.0 76   0 16.1 100.94     LegendNANA
11:00 Legend Double Dagger 3.3 -3.1 63 LegendMM 4 16.1 100.87     LegendNANA
12:00 Legend Double Dagger 3.7 -1.1 71 LegendMM 4 16.1 100.82     LegendNANA
13:00 Legend Double Dagger 2.7 -2.7 67 36 8 16.1 100.77     LegendNANA
14:00 Legend Double Dagger 3.3 -2.8 64 LegendMM 5 16.1 100.74     LegendNANA
15:00 Legend Double Dagger 2.4 -3.3 66 4 5 16.1 100.73     LegendNANA
16:00 Legend Double Dagger 0.4 -4.3 71 6 8 16.1 100.70     LegendNANA
17:00 Legend Double Dagger -0.9 -4.7 76 6 8 16.1 100.65   -4 LegendNANA
18:00 Legend Double Dagger 0.0 -4.3 73   0 16.1 100.61     LegendNANA
19:00 Legend Double Dagger -0.9 -5.2 73   0 16.1 100.56     LegendNANA
20:00 Legend Double Dagger -3.6 -6.7 79 16 9 16.1 100.50   -7 LegendNANA
21:00 Legend Double Dagger -4.2 -6.5 84 14 13 16.1 100.44   -9 LegendNANA
22:00 Legend Double Dagger -4.7 -6.5 87 14 13 16.1 100.38   -10 LegendNANA
23:00 Legend Double Dagger -4.7 -6.4 88 15 11 16.1 100.33   -9 LegendNANA

Notes on Data Quality.

Legend

  • E = Estimated
  • M = Missing
  • NA = Not Available
  • ‡ = Partner data that is not subject to review by the National Climate Archives
Date modified: